EW8704 Weather Reports


time (UTC)temp
C
wind
direction
speed
KPH
gust
KPH
rain 1hr
cm
rain 24hr
cm
rain mn
cm
humidity
%
barometer
mb
20260906150034 21 147 1.6 6.4 0.00 0.00 0.00 85 1019.3
20260906144512 21 140 0.0 4.8 0.00 0.00 0.00 89 1019.2
20260906143056 20 61 0.0 4.8 0.00 0.00 0.00 92 1019.1
20260906141524 20 120 0.0 1.6 0.00 0.00 0.00 93 1019.5
20260906140111 19 158 0.0 3.2 0.00 0.00 0.00 94 1019.2
20260906134548 19 76 0.0 0.0 0.00 0.00 0.00 95 1019.0
20260906133037 18 190 0.0 1.6 0.00 0.00 0.00 95 1018.9
20260906131524 18 190 0.0 1.6 0.00 0.00 0.00 96 1018.6
20260906124544 18 190 0.0 0.0 0.00 0.00 0.00 97 1018.7
20260906123043 18 190 0.0 0.0 0.00 0.00 0.00 97 1018.8
20260906121516 18 190 0.0 0.0 0.00 0.00 0.00 97 1018.6
20260906120115 18 190 0.0 0.0 0.00 0.00 0.00 97 1018.6
20260906114548 18 190 0.0 0.0 0.00 0.00 0.00 98 1018.1
20260906113056 18 190 0.0 0.0 0.00 0.00 0.00 98 1018.2
20260906111530 18 190 0.0 0.0 0.00 0.00 0.00 98 1018.5
20260906110012 18 190 0.0 0.0 0.00 0.00 0.00 97 1018.4
20260906104510 18 190 0.0 1.6 0.00 0.00 0.00 96 1018.2
20260906103059 18 190 0.0 0.0 0.00 0.00 0.00 97 1018.1
20260906101537 18 190 0.0 0.0 0.00 0.00 0.00 96 1017.9
20260906100036 18 190 0.0 1.6 0.00 0.00 0.00 96 1017.7
20260906094533 18 190 0.0 0.0 0.00 0.00 0.00 96 1017.3
20260906093105 19 190 0.0 1.6 0.00 0.00 0.00 96 1017.2
20260906091551 19 190 0.0 1.6 0.00 0.00 0.00 95 1017.1
20260906090054 19 190 0.0 1.6 0.00 0.00 0.00 95 1017.3
20260906084546 19 190 0.0 0.0 0.00 0.00 0.00 96 1017.3
20260906083014 19 190 0.0 0.0 0.00 0.00 0.00 96 1017.2
20260906081504 19 190 0.0 0.0 0.00 0.00 0.00 96 1017.2
20260906080107 19 190 0.0 0.0 0.00 0.00 0.00 96 1017.3
20260906074540 19 190 0.0 1.6 0.00 0.00 0.00 96 1017.2
20260906073041 19 190 0.0 0.0 0.00 0.00 0.00 97 1017.3
20260906071518 19 190 0.0 0.0 0.00 0.00 0.00 97 1017.6
20260906070002 19 190 0.0 0.0 0.00 0.00 0.00 95 1017.7
20260906064554 19 190 0.0 0.0 0.00 0.00 0.00 96 1017.5
20260906063058 19 190 0.0 1.6 0.00 0.00 0.00 96 1017.7
20260906061548 19 190 0.0 0.0 0.00 0.00 0.00 96 1017.7
20260906060038 19 190 0.0 0.0 0.00 0.00 0.00 96 1017.8
20260906054520 19 190 0.0 0.0 0.00 0.00 0.00 95 1017.8
20260906053106 19 190 0.0 1.6 0.00 0.00 0.00 95 1017.7
20260906051605 20 190 0.0 0.0 0.00 0.00 0.00 94 1017.7
20260906050014 20 190 0.0 1.6 0.00 0.00 0.00 94 1017.5
20260906044508 20 190 0.0 0.0 0.00 0.00 0.00 93 1017.5
20260906043053 20 190 0.0 0.0 0.00 0.00 0.00 91 1017.2
20260906041527 20 97 0.0 1.6 0.00 0.00 0.00 91 1017.0
20260906040036 20 174 0.0 3.2 0.00 0.00 0.00 92 1016.9
20260906034526 20 174 0.0 3.2 0.00 0.00 0.00 93 1016.8
20260906033110 20 174 0.0 1.6 0.00 0.00 0.00 94 1016.8
20260906031559 20 174 0.0 4.8 0.00 0.00 0.00 94 1016.7
20260906030116 20 63 0.0 0.0 0.00 0.00 0.00 93 1016.4
20260906024601 20 63 0.0 0.0 0.00 0.00 0.00 93 1016.2
20260906023048 20 63 0.0 0.0 0.00 0.00 0.00 92 1016.0
20260906021535 20 63 0.0 0.0 0.00 0.00 0.00 92 1015.6
20260906020029 20 63 0.0 0.0 0.00 0.00 0.00 93 1015.2
20260906014524 20 63 0.0 0.0 0.00 0.00 0.00 92 1015.0
20260906013057 21 63 0.0 0.0 0.00 0.00 0.00 91 1014.8
20260906011543 21 63 0.0 0.0 0.00 0.00 0.00 90 1014.7
20260906010035 22 63 0.0 0.0 0.00 0.00 0.00 87 1014.8
20260906004538 23 63 0.0 0.0 0.00 0.00 0.00 84 1014.8
20260906003009 23 63 0.0 0.0 0.00 0.00 0.00 81 1014.9
20260906001509 25 63 0.0 0.0 0.00 0.00 0.00 78 1014.9
20260906000109 25 63 0.0 0.0 0.00 0.00 0.00 77 1014.9
20260905234606 25 63 0.0 1.6 0.00 0.00 0.00 75 1014.8
20260905233053 26 63 0.0 3.2 0.00 0.00 0.00 75 1014.6
20260905231545 26 95 0.0 1.6 0.00 0.00 0.00 76 1014.8
20260905230041 26 95 0.0 1.6 0.00 0.00 0.00 75 1014.9
20260905224530 26 95 0.0 0.0 0.00 0.00 0.00 74 1014.9
20260905223003 27 250 0.0 3.2 0.00 0.00 0.00 72 1015.0
20260905221500 26 47 0.0 1.6 0.00 0.00 0.00 73 1015.0
20260905220047 26 25 0.0 3.2 0.00 0.00 0.00 73 1015.2
20260905214541 26 241 0.0 1.6 0.00 0.00 0.00 72 1015.2
20260905213041 26 226 0.0 4.8 0.00 0.00 0.00 74 1015.4
20260905211508 26 99 0.0 3.2 0.00 0.00 0.00 73 1015.4
20260905210058 26 310 0.0 3.2 0.00 0.00 0.00 77 1015.5
20260905204546 26 284 0.0 4.8 0.00 0.00 0.00 76 1015.7
20260905203037 26 254 0.0 1.6 0.00 0.00 0.00 77 1015.9
20260905201517 25 177 0.0 3.2 0.00 0.00 0.00 78 1015.8
20260905200113 26 177 0.0 3.2 0.00 0.00 0.00 77 1015.8
20260905194557 26 124 0.0 4.8 0.00 0.00 0.00 74 1015.9
20260905193045 25 340 0.0 1.6 0.00 0.00 0.00 80 1015.8
20260905191508 25 269 1.6 4.8 0.00 0.00 0.00 78 1015.7
20260905190100 25 283 0.0 3.2 0.00 0.00 0.00 83 1015.8
20260905184537 24 304 0.0 4.8 0.00 0.00 0.00 83 1015.8
20260905183035 24 63 1.6 6.4 0.00 0.00 0.00 83 1015.9
20260905181603 23 256 0.0 3.2 0.00 0.00 0.00 84 1016.1
20260905181501 23 256 0.0 3.2 0.00 0.00 0.00 85 1016.2
20260905180045 23 132 0.0 1.6 0.00 0.00 0.00 87 1016.2
20260905174508 22 313 0.0 3.2 0.00 0.00 0.00 91 1016.4
20260905173044 22 263 0.0 1.6 0.00 0.00 0.00 92 1016.5
20260905171526 22 155 0.0 0.0 0.00 0.00 0.00 93 1016.5
20260905170036 22 100 0.0 1.6 0.00 0.00 0.00 93 1016.5
20260905164517 22 55 0.0 1.6 0.00 0.00 0.00 93 1016.6
20260905163114 22 55 0.0 3.2 0.00 0.00 0.00 92 1016.7
20260905161554 22 95 0.0 1.6 0.00 0.00 0.00 92 1016.6
20260905160048 22 95 0.0 3.2 0.00 0.00 0.00 93 1016.4
20260905154526 22 226 0.0 1.6 0.00 0.00 0.00 95 1016.3
20260905153112 21 226 0.0 3.2 0.00 0.00 0.00 97 1016.3
20260905151551 21 155 0.0 1.6 0.00 0.00 0.00 98 1016.1